User: anonymous   Login
Location: Csohesd
(46.2500°N, 22.6167°E)
Time: 17:55:38
(UTC+00:00)
Language:

Cosmos 1697 Rocket - Orbit

View from above orbital plane
View from above orbital plane
View from above satellite
View from above satellite

Ground track
Ground track

The orbit data is extracted from the following two-line orbital elements,

1 16182U 85097B   22024.54757866 -.00000053  00000-0 -26956-5 0  9998
2 16182  71.0024  68.3264 0006628  12.9753  92.1228 14.16264201874091
Epoch (UTC): 24 January 2022 13:08:30
Eccentricity: 0.0006628
inclination: 71.0024°
perigee height: 833 km
apogee height: 843 km
right ascension of ascending node: 68.3264°
argument of perigee: 12.9753°
revolutions per day: 14.16264201
mean anomaly at epoch: 92.1228°
orbit number at epoch: 87409

The dashed part of the orbit path shows where the satellite is in the earth's shadow,  

DLR